Location: Rometta
(44.2000°N, 10.0500°E)
Time: 11:48:23
(UTC+00:00)

Lacrosse 5 - Pass Details

Date: 20 January 2021
Orbit: 715 x 724 km, 57.0° (Epoch: 03 March)

Event Time Altitude Azimuth Distance (km) Brightness Sun altitude
Rises 17:34:51 0° 313° (NW) 3,123 5.7 -14.4°
Reaches altitude 10° 17:37:18 10° 318° (NW) 2,200 4.7 -14.9°
Maximum altitude 17:42:14 52° 35° (NE) 890 2.0 -15.7°
Enters shadow 17:45:00 25° 101° (E) 1,438 2.9 -16.2°
